Year,Month,Day,Hour,Minute,Value (Times are PST for temperature in C)
2012,05,25,00,00,7.30
2012,05,25,00,01,7.30
2012,05,25,00,02,7.30
2012,05,25,00,03,7.30
2012,05,25,00,04,7.30
2012,05,25,00,05,7.30
2012,05,25,00,06,7.30
2012,05,25,00,07,7.30
2012,05,25,00,08,7.30
2012,05,25,00,09,7.30
2012,05,25,00,10,7.30
2012,05,25,00,11,7.20
2012,05,25,00,12,7.20
2012,05,25,00,18,7.20
2012,05,25,00,19,7.20
2012,05,25,00,20,7.20
2012,05,25,00,21,7.20
2012,05,25,00,22,7.20
2012,05,25,00,23,7.10
2012,05,25,00,24,7.10
2012,05,25,00,25,7.10
2012,05,25,00,26,7.10
2012,05,25,00,27,7.00
2012,05,25,00,28,7.00
2012,05,25,00,29,7.00
2012,05,25,00,30,6.90
2012,05,25,00,31,6.90
2012,05,25,00,32,6.90
2012,05,25,00,33,6.80
2012,05,25,00,34,6.80
2012,05,25,00,35,6.80
2012,05,25,00,36,6.80
2012,05,25,00,37,6.70
2012,05,25,00,38,6.70
2012,05,25,00,39,6.70
2012,05,25,00,40,6.70
2012,05,25,00,41,6.70
2012,05,25,00,42,6.70
2012,05,25,00,43,6.70
2012,05,25,00,44,6.70
2012,05,25,00,45,6.70
2012,05,25,00,46,6.60
2012,05,25,00,47,6.60
2012,05,25,00,48,6.60
2012,05,25,00,49,6.60
2012,05,25,00,50,6.60
2012,05,25,00,51,6.60
2012,05,25,00,52,6.60
2012,05,25,00,53,6.50
2012,05,25,00,54,6.50
2012,05,25,00,55,6.50
2012,05,25,00,56,6.50
2012,05,25,00,57,6.50
2012,05,25,00,58,6.50
2012,05,25,00,59,6.40
2012,05,25,01,00,6.40
2012,05,25,01,01,6.40
2012,05,25,01,02,6.40
2012,05,25,01,03,6.40
2012,05,25,01,04,6.40
2012,05,25,01,05,6.40
2012,05,25,01,06,6.40
2012,05,25,01,07,6.40
2012,05,25,01,08,6.40
2012,05,25,01,09,6.40
2012,05,25,01,10,6.30
2012,05,25,01,11,6.30
2012,05,25,01,12,6.30
2012,05,25,01,13,6.30
2012,05,25,01,14,6.30
2012,05,25,01,15,6.30
2012,05,25,01,16,6.30
2012,05,25,01,17,6.30
2012,05,25,01,18,6.30
2012,05,25,01,19,6.30
2012,05,25,01,20,6.30
2012,05,25,01,21,6.30
2012,05,25,01,22,6.30
2012,05,25,01,23,6.30
2012,05,25,01,24,6.20
2012,05,25,01,25,6.20
2012,05,25,01,26,6.20
2012,05,25,01,27,6.20
2012,05,25,01,28,6.20
2012,05,25,01,29,6.20
2012,05,25,01,30,6.20
2012,05,25,01,31,6.20
2012,05,25,01,32,6.10
2012,05,25,01,33,6.10
2012,05,25,01,34,6.10
2012,05,25,01,35,6.10
2012,05,25,01,36,6.10
2012,05,25,01,37,6.10
2012,05,25,01,38,6.10
2012,05,25,01,39,6.10
2012,05,25,01,40,6.10
2012,05,25,01,41,6.10
2012,05,25,01,42,6.10
2012,05,25,01,43,6.10
2012,05,25,01,44,6.10
2012,05,25,01,45,6.10
2012,05,25,01,46,6.10
2012,05,25,01,47,6.10
2012,05,25,01,48,6.10
2012,05,25,01,49,6.10
2012,05,25,01,50,6.00
2012,05,25,01,51,6.00
2012,05,25,01,52,6.00
2012,05,25,01,53,6.00
2012,05,25,01,54,5.90
2012,05,25,01,55,5.90
2012,05,25,01,56,5.90
2012,05,25,01,57,5.90
2012,05,25,01,58,5.90
2012,05,25,01,59,5.90
2012,05,25,02,00,5.90
2012,05,25,02,01,5.90
2012,05,25,02,02,5.90
2012,05,25,02,03,5.90
2012,05,25,02,04,5.90
2012,05,25,02,05,5.80
2012,05,25,02,06,5.80
2012,05,25,02,07,5.80
2012,05,25,02,08,5.80
2012,05,25,02,09,5.80
2012,05,25,02,10,5.80
2012,05,25,02,11,5.80
2012,05,25,02,12,5.80
2012,05,25,02,13,5.80
2012,05,25,02,14,5.70
2012,05,25,02,15,5.70
2012,05,25,02,16,5.70
2012,05,25,02,17,5.70
2012,05,25,02,18,5.70
2012,05,25,02,19,5.70
2012,05,25,02,20,5.70
2012,05,25,02,21,5.70
2012,05,25,02,22,5.70
2012,05,25,02,23,5.70
2012,05,25,02,24,5.70
2012,05,25,02,25,5.70
2012,05,25,02,26,5.70
2012,05,25,02,27,5.60
2012,05,25,02,28,5.60
2012,05,25,02,29,5.60
2012,05,25,02,30,5.60
2012,05,25,02,31,5.60
2012,05,25,02,32,5.60
2012,05,25,02,33,5.50
2012,05,25,02,34,5.50
2012,05,25,02,35,5.50
2012,05,25,02,36,5.40
2012,05,25,02,37,5.40
2012,05,25,02,38,5.40
2012,05,25,02,39,5.40
2012,05,25,02,40,5.40
2012,05,25,02,41,5.40
2012,05,25,02,42,5.40
2012,05,25,02,43,5.40
2012,05,25,02,44,5.40
2012,05,25,02,45,5.40
2012,05,25,02,46,5.40
2012,05,25,02,47,5.40
2012,05,25,02,48,5.40
2012,05,25,02,49,5.40
2012,05,25,02,50,5.40
2012,05,25,02,51,5.40
2012,05,25,02,52,5.40
2012,05,25,02,53,5.40
2012,05,25,02,54,5.40
2012,05,25,02,55,5.30
2012,05,25,02,56,5.30
2012,05,25,02,57,5.30
2012,05,25,02,58,5.30
2012,05,25,02,59,5.30
2012,05,25,03,00,5.30
2012,05,25,03,01,5.30
2012,05,25,03,02,5.30
2012,05,25,03,03,5.30
2012,05,25,03,04,5.30
2012,05,25,03,05,5.30
2012,05,25,03,06,5.30
2012,05,25,03,07,5.30
2012,05,25,03,08,5.30
2012,05,25,03,09,5.30
2012,05,25,03,10,5.30
2012,05,25,03,11,5.30
2012,05,25,03,12,5.30
2012,05,25,03,13,5.30
2012,05,25,03,14,5.30
2012,05,25,03,15,5.30
2012,05,25,03,16,5.30
2012,05,25,03,17,5.30
2012,05,25,03,18,5.30
2012,05,25,03,19,5.30
2012,05,25,03,20,5.30
2012,05,25,03,21,5.30
2012,05,25,03,22,5.30
2012,05,25,03,23,5.30
2012,05,25,03,24,5.30
2012,05,25,03,25,5.30
2012,05,25,03,26,5.20
2012,05,25,03,27,5.20
2012,05,25,03,28,5.20
2012,05,25,03,29,5.20
2012,05,25,03,30,5.20
2012,05,25,03,31,5.20
2012,05,25,03,32,5.20
2012,05,25,03,33,5.20
2012,05,25,03,34,5.20
2012,05,25,03,35,5.20
2012,05,25,03,36,5.20
2012,05,25,03,37,5.20
2012,05,25,03,38,5.20
2012,05,25,03,39,5.20
2012,05,25,03,40,5.20
2012,05,25,03,41,5.20
2012,05,25,03,42,5.20
2012,05,25,03,43,5.20
2012,05,25,03,44,5.20
2012,05,25,03,45,5.20
2012,05,25,03,46,5.10
2012,05,25,03,47,5.10
2012,05,25,03,48,5.10
2012,05,25,03,49,5.10
2012,05,25,03,50,5.10
2012,05,25,03,51,5.10
2012,05,25,03,52,5.10
2012,05,25,03,53,5.10
2012,05,25,03,54,5.10
2012,05,25,03,55,5.10
2012,05,25,03,56,5.00
2012,05,25,03,57,5.00
2012,05,25,03,58,5.00
2012,05,25,03,59,5.00
2012,05,25,04,00,5.00
2012,05,25,04,01,5.00
2012,05,25,04,02,5.00
2012,05,25,04,03,5.00
2012,05,25,04,04,5.00
2012,05,25,04,05,5.00
2012,05,25,04,06,4.90
2012,05,25,04,07,5.00
2012,05,25,04,08,5.00
2012,05,25,04,09,5.00
2012,05,25,04,10,5.00
2012,05,25,04,11,5.00
2012,05,25,04,12,5.00
2012,05,25,04,13,4.90
2012,05,25,04,14,5.00
2012,05,25,04,15,5.00
2012,05,25,04,16,4.90
2012,05,25,04,17,4.90
2012,05,25,04,18,4.90
2012,05,25,04,19,4.90
2012,05,25,04,20,4.90
2012,05,25,04,21,4.90
2012,05,25,04,22,4.90
2012,05,25,04,23,4.80
2012,05,25,04,24,4.80
2012,05,25,04,25,4.80
2012,05,25,04,26,4.80
2012,05,25,04,27,4.80
2012,05,25,04,28,4.80
2012,05,25,04,29,4.80
2012,05,25,04,30,4.80
2012,05,25,04,31,4.70
2012,05,25,04,32,4.70
2012,05,25,04,33,4.70
2012,05,25,04,34,4.70
2012,05,25,04,35,4.80
2012,05,25,04,36,4.80
2012,05,25,04,37,4.80
2012,05,25,04,38,4.80
2012,05,25,04,39,4.80
2012,05,25,04,40,4.70
2012,05,25,04,41,4.70
2012,05,25,04,42,4.70
2012,05,25,04,43,4.70
2012,05,25,04,44,4.70
2012,05,25,04,45,4.70
2012,05,25,04,46,4.60
2012,05,25,04,47,4.60
2012,05,25,04,48,4.60
2012,05,25,04,49,4.60
2012,05,25,04,50,4.60
2012,05,25,04,51,4.60
2012,05,25,04,52,4.60
2012,05,25,04,53,4.60
2012,05,25,04,54,4.60
2012,05,25,04,55,4.60
2012,05,25,04,56,4.70
2012,05,25,04,57,4.70
2012,05,25,04,58,4.70
2012,05,25,04,59,4.70
2012,05,25,05,00,4.70
2012,05,25,05,01,4.70
2012,05,25,05,02,4.70
2012,05,25,05,03,4.70
2012,05,25,05,04,4.70
2012,05,25,05,05,4.70
2012,05,25,05,06,4.70
2012,05,25,05,07,4.70
2012,05,25,05,08,4.70
2012,05,25,05,09,4.70
2012,05,25,05,10,4.70
2012,05,25,05,11,4.70
2012,05,25,05,12,4.70
2012,05,25,05,13,4.70
2012,05,25,05,14,4.70
2012,05,25,05,15,4.70
2012,05,25,05,16,4.70
2012,05,25,05,17,4.70
2012,05,25,05,18,4.70
2012,05,25,05,19,4.70
2012,05,25,05,20,4.70
2012,05,25,05,21,4.70
2012,05,25,05,22,4.60
2012,05,25,05,23,4.60
2012,05,25,05,24,4.60
2012,05,25,05,25,4.60
2012,05,25,05,26,4.60
2012,05,25,05,27,4.60
2012,05,25,05,28,4.60
2012,05,25,05,29,4.60
2012,05,25,05,30,4.60
2012,05,25,05,31,4.60
2012,05,25,05,32,4.60
2012,05,25,05,33,4.60
2012,05,25,05,34,4.60
2012,05,25,05,35,4.60
2012,05,25,05,36,4.60
2012,05,25,05,37,4.60
2012,05,25,05,38,4.60
2012,05,25,05,39,4.60
2012,05,25,05,40,4.60
2012,05,25,05,41,4.60
2012,05,25,05,42,4.60
2012,05,25,05,43,4.60
2012,05,25,05,44,4.60
2012,05,25,05,45,4.60
2012,05,25,05,46,4.60
2012,05,25,05,47,4.60
2012,05,25,05,48,4.60
2012,05,25,05,49,4.60
2012,05,25,05,50,4.60
2012,05,25,05,51,4.60
2012,05,25,05,52,4.60
2012,05,25,05,53,4.60
2012,05,25,05,54,4.60
2012,05,25,05,55,4.60
2012,05,25,05,56,4.60
2012,05,25,05,57,4.60
2012,05,25,05,58,4.60
2012,05,25,05,59,4.60
2012,05,25,06,00,4.60
2012,05,25,06,01,4.60
2012,05,25,06,02,4.60
2012,05,25,06,03,4.60
2012,05,25,06,04,4.60
2012,05,25,06,05,4.60
2012,05,25,06,06,4.60
2012,05,25,06,07,4.60
2012,05,25,06,08,4.60
2012,05,25,06,09,4.60
2012,05,25,06,10,4.70
2012,05,25,06,11,4.70
2012,05,25,06,12,4.70
2012,05,25,06,13,4.70
2012,05,25,06,14,4.80
2012,05,25,06,15,4.80
2012,05,25,06,16,4.80
2012,05,25,06,17,4.80
2012,05,25,06,18,4.80
2012,05,25,06,19,4.80
2012,05,25,06,20,4.80
2012,05,25,06,21,4.90
2012,05,25,06,22,4.90
2012,05,25,06,23,4.90
2012,05,25,06,24,4.90
2012,05,25,06,25,5.00
2012,05,25,06,26,5.00
2012,05,25,06,27,5.10
2012,05,25,06,28,5.10
2012,05,25,06,29,5.10
2012,05,25,06,30,5.10
2012,05,25,06,31,5.10
2012,05,25,06,32,5.10
2012,05,25,06,33,5.20
2012,05,25,06,34,5.20
2012,05,25,06,35,5.20
2012,05,25,06,36,5.20
2012,05,25,06,37,5.20
2012,05,25,06,38,5.30
2012,05,25,06,39,5.30
2012,05,25,06,40,5.30
2012,05,25,06,41,5.40
2012,05,25,06,42,5.40
2012,05,25,06,43,5.50
2012,05,25,06,44,5.50
2012,05,25,06,45,5.60
2012,05,25,06,46,5.60
2012,05,25,06,47,5.70
2012,05,25,06,48,5.70
2012,05,25,06,49,5.70
2012,05,25,06,50,5.70
2012,05,25,06,51,5.80
2012,05,25,06,52,5.80
2012,05,25,06,53,5.80
2012,05,25,06,54,5.90
2012,05,25,06,55,5.90
2012,05,25,06,56,5.90
2012,05,25,06,57,6.00
2012,05,25,06,58,6.10
2012,05,25,06,59,6.10
2012,05,25,07,00,6.10
2012,05,25,07,01,6.20
2012,05,25,07,02,6.30
2012,05,25,07,03,6.30
2012,05,25,07,04,6.40
2012,05,25,07,05,6.50
2012,05,25,07,06,6.50
2012,05,25,07,07,6.60
2012,05,25,07,08,6.70
2012,05,25,07,09,6.70
2012,05,25,07,10,6.80
2012,05,25,07,11,6.90
2012,05,25,07,12,6.90
2012,05,25,07,13,6.90
2012,05,25,07,14,7.00
2012,05,25,07,15,7.10
2012,05,25,07,16,7.10
2012,05,25,07,17,7.20
2012,05,25,07,18,7.20
2012,05,25,07,19,7.30
2012,05,25,07,20,7.40
2012,05,25,07,21,7.50
2012,05,25,07,22,7.70
2012,05,25,07,23,7.80
2012,05,25,07,24,7.90
2012,05,25,07,25,8.10
2012,05,25,07,26,8.20
2012,05,25,07,27,8.40
2012,05,25,07,28,8.50
2012,05,25,07,29,8.70
2012,05,25,07,30,8.80
2012,05,25,07,31,9.00
2012,05,25,07,32,9.10
2012,05,25,07,33,9.30
2012,05,25,07,34,9.40
2012,05,25,07,35,9.50
2012,05,25,07,36,9.60
2012,05,25,07,37,9.80
2012,05,25,07,38,9.90
2012,05,25,07,39,10.00
2012,05,25,07,40,10.20
2012,05,25,07,41,10.20
2012,05,25,07,42,10.30
2012,05,25,07,43,10.30
2012,05,25,07,44,10.40
2012,05,25,07,45,10.50
2012,05,25,07,46,10.60
2012,05,25,07,47,10.70
2012,05,25,07,48,10.80
2012,05,25,07,49,10.80
2012,05,25,07,50,10.80
2012,05,25,07,51,10.90
2012,05,25,07,52,11.10
2012,05,25,07,53,11.20
2012,05,25,07,54,11.30
2012,05,25,07,55,11.50
2012,05,25,07,56,11.60
2012,05,25,07,57,11.80
2012,05,25,07,58,11.90
2012,05,25,07,59,12.10
2012,05,25,08,00,12.20
2012,05,25,08,01,12.40
2012,05,25,08,02,12.60
2012,05,25,08,03,12.70
2012,05,25,08,04,12.90
2012,05,25,08,05,13.00
2012,05,25,08,06,13.10
2012,05,25,08,07,13.20
2012,05,25,08,08,13.20
2012,05,25,08,09,13.30
2012,05,25,08,10,13.30
2012,05,25,08,11,13.40
2012,05,25,08,12,13.50
2012,05,25,08,13,13.50
2012,05,25,08,14,13.60
2012,05,25,08,15,13.70
2012,05,25,08,16,13.80
2012,05,25,08,17,13.90
2012,05,25,08,18,14.00
2012,05,25,08,19,14.10
2012,05,25,08,20,14.20
2012,05,25,08,21,14.30
2012,05,25,08,22,14.40
2012,05,25,08,23,14.60
2012,05,25,08,24,14.70
2012,05,25,08,25,14.70
2012,05,25,08,26,14.70
2012,05,25,08,27,14.70
2012,05,25,08,28,14.80
2012,05,25,08,29,14.80
2012,05,25,08,30,14.90
2012,05,25,08,31,15.00
2012,05,25,08,32,15.00
2012,05,25,08,33,15.00
2012,05,25,08,34,15.00
2012,05,25,08,35,15.00
2012,05,25,08,36,15.00
2012,05,25,08,37,15.10
2012,05,25,08,38,15.20
2012,05,25,08,39,15.20
2012,05,25,08,40,15.30
2012,05,25,08,41,15.30
2012,05,25,08,42,15.30
2012,05,25,08,43,15.40
2012,05,25,08,44,15.50
2012,05,25,08,45,15.60
2012,05,25,08,46,15.70
2012,05,25,08,47,15.80
2012,05,25,08,48,15.80
2012,05,25,08,49,15.80
2012,05,25,08,50,15.70
2012,05,25,08,51,15.60
2012,05,25,08,52,15.60
2012,05,25,08,53,15.60
2012,05,25,08,54,15.60
2012,05,25,08,55,15.60
2012,05,25,08,56,15.60
2012,05,25,08,57,15.60
2012,05,25,08,58,15.60
2012,05,25,08,59,15.60
2012,05,25,09,00,15.60
2012,05,25,09,01,15.70
2012,05,25,09,02,15.80
2012,05,25,09,03,15.80
2012,05,25,09,04,15.90
2012,05,25,09,05,15.90
2012,05,25,09,06,15.90
2012,05,25,09,07,16.00
2012,05,25,09,08,16.00
2012,05,25,09,09,16.00
2012,05,25,09,10,16.10
2012,05,25,09,11,16.10
2012,05,25,09,12,16.20
2012,05,25,09,13,16.30
2012,05,25,09,14,16.30
2012,05,25,09,15,16.30
2012,05,25,09,16,16.30
2012,05,25,09,17,16.30
2012,05,25,09,18,16.20
2012,05,25,09,19,16.20
2012,05,25,09,20,16.20
2012,05,25,09,21,16.20
2012,05,25,09,22,16.20
2012,05,25,09,23,16.30
2012,05,25,09,24,16.30
2012,05,25,09,25,16.30
2012,05,25,09,26,16.30
2012,05,25,09,27,16.30
2012,05,25,09,28,16.30
2012,05,25,09,29,16.30
2012,05,25,09,30,16.40
2012,05,25,09,31,16.50
2012,05,25,09,32,16.60
2012,05,25,09,33,16.80
2012,05,25,09,34,16.90
2012,05,25,09,35,16.90
2012,05,25,09,36,16.90
2012,05,25,09,37,16.90
2012,05,25,09,38,16.90
2012,05,25,09,39,17.00
2012,05,25,09,40,17.10
2012,05,25,09,41,17.10
2012,05,25,09,42,17.20
2012,05,25,09,43,17.30
2012,05,25,09,44,17.20
2012,05,25,09,45,17.20
2012,05,25,09,46,17.20
2012,05,25,09,47,17.30
2012,05,25,09,48,17.30
2012,05,25,09,49,17.30
2012,05,25,09,50,17.30
2012,05,25,09,51,17.30
2012,05,25,09,52,17.30
2012,05,25,09,53,17.30
2012,05,25,09,54,17.20
2012,05,25,09,55,17.20
2012,05,25,09,56,17.20
2012,05,25,09,57,17.30
2012,05,25,09,58,17.30
2012,05,25,09,59,17.30
2012,05,25,10,00,17.20
2012,05,25,10,01,17.20
2012,05,25,10,02,17.10
2012,05,25,10,03,17.00
2012,05,25,10,04,16.90
2012,05,25,10,05,16.80
2012,05,25,10,06,16.80
2012,05,25,10,07,16.70
2012,05,25,10,08,16.70
2012,05,25,10,09,16.60
2012,05,25,10,10,16.50
2012,05,25,10,11,16.40
2012,05,25,10,12,16.30
2012,05,25,10,13,16.20
2012,05,25,10,14,16.20
2012,05,25,10,15,16.20
2012,05,25,10,16,16.20
2012,05,25,10,17,16.30
2012,05,25,10,18,16.40
2012,05,25,10,19,16.50
2012,05,25,10,20,16.70
2012,05,25,10,21,16.90
2012,05,25,10,22,16.90
2012,05,25,10,23,17.00
2012,05,25,10,24,17.10
2012,05,25,10,25,17.10
2012,05,25,10,26,17.00
2012,05,25,10,27,17.00
2012,05,25,10,28,17.10
2012,05,25,10,29,17.20
2012,05,25,10,30,17.30
2012,05,25,10,31,17.40
2012,05,25,10,32,17.40
2012,05,25,10,33,17.50
2012,05,25,10,34,17.50
2012,05,25,10,35,17.60
2012,05,25,10,36,17.80
2012,05,25,10,37,17.90
2012,05,25,10,38,18.00
2012,05,25,10,39,18.10
2012,05,25,10,40,18.10
2012,05,25,10,41,18.00
2012,05,25,10,42,18.00
2012,05,25,10,43,17.90
2012,05,25,10,44,17.80
2012,05,25,10,45,17.80
2012,05,25,10,46,17.70
2012,05,25,10,47,17.70
2012,05,25,10,48,17.70
2012,05,25,10,49,17.80
2012,05,25,10,50,18.00
2012,05,25,10,51,18.10
2012,05,25,10,52,18.20
2012,05,25,10,53,18.30
2012,05,25,10,54,18.30
2012,05,25,10,55,18.40
2012,05,25,10,56,18.40
2012,05,25,10,57,18.30
2012,05,25,10,58,18.30
2012,05,25,10,59,18.30
2012,05,25,11,00,18.30
2012,05,25,11,01,18.40
2012,05,25,11,02,18.50
2012,05,25,11,03,18.60
2012,05,25,11,04,18.70
2012,05,25,11,05,18.80
2012,05,25,11,06,18.90
2012,05,25,11,07,19.00
2012,05,25,11,08,19.20
2012,05,25,11,09,19.30
2012,05,25,11,10,19.40
2012,05,25,11,11,19.50
2012,05,25,11,12,19.60
2012,05,25,11,13,19.60
2012,05,25,11,14,19.60
2012,05,25,11,15,19.70
2012,05,25,11,16,19.70
2012,05,25,11,17,19.60
2012,05,25,11,18,19.60
2012,05,25,11,19,19.60
2012,05,25,11,20,19.60
2012,05,25,11,21,19.40
2012,05,25,11,22,19.30
2012,05,25,11,23,19.20
2012,05,25,11,24,19.10
2012,05,25,11,25,19.00
2012,05,25,11,26,18.90
2012,05,25,11,27,18.90
2012,05,25,11,28,19.00
2012,05,25,11,29,19.10
2012,05,25,11,30,19.20
2012,05,25,11,31,19.20
2012,05,25,11,32,19.00
2012,05,25,11,33,18.80
2012,05,25,11,34,18.70
2012,05,25,11,35,18.80
2012,05,25,11,36,18.80
2012,05,25,11,37,18.90
2012,05,25,11,38,19.00
2012,05,25,11,39,19.10
2012,05,25,11,40,19.30
2012,05,25,11,41,19.40
2012,05,25,11,42,19.40
2012,05,25,11,43,19.40
2012,05,25,11,44,19.40
2012,05,25,11,45,19.50
2012,05,25,11,46,19.60
2012,05,25,11,47,19.70
2012,05,25,11,48,19.90
2012,05,25,11,49,20.00
2012,05,25,11,50,20.10
2012,05,25,11,51,20.30
2012,05,25,11,52,20.30
2012,05,25,11,53,20.40
2012,05,25,11,54,20.50
2012,05,25,11,55,20.70
2012,05,25,11,56,20.80
2012,05,25,11,57,21.00
2012,05,25,11,58,21.10
2012,05,25,11,59,21.30
2012,05,25,12,00,21.30
2012,05,25,12,01,21.30
2012,05,25,12,02,21.30
2012,05,25,12,03,21.40
2012,05,25,12,04,21.40
2012,05,25,12,05,21.40
2012,05,25,12,06,21.40
2012,05,25,12,07,21.40
2012,05,25,12,08,21.40
2012,05,25,12,09,21.40
2012,05,25,12,10,21.30
2012,05,25,12,11,21.30
2012,05,25,12,12,21.30
2012,05,25,12,13,21.30
2012,05,25,12,14,21.30
2012,05,25,12,15,21.30
2012,05,25,12,16,21.30
2012,05,25,12,17,21.40
2012,05,25,12,18,21.40
2012,05,25,12,19,21.40
2012,05,25,12,20,21.40
2012,05,25,12,21,21.40
2012,05,25,12,22,21.40
2012,05,25,12,23,21.40
2012,05,25,12,24,21.40
2012,05,25,12,25,21.40
2012,05,25,12,26,21.50
2012,05,25,12,27,21.50
2012,05,25,12,28,21.40
2012,05,25,12,29,21.40
2012,05,25,12,30,21.30
2012,05,25,12,31,21.30
2012,05,25,12,32,21.30
2012,05,25,12,33,21.20
2012,05,25,12,34,21.20
2012,05,25,12,35,21.30
2012,05,25,12,36,21.30
2012,05,25,12,37,21.30
2012,05,25,12,38,21.30
2012,05,25,12,39,21.40
2012,05,25,12,40,21.50
2012,05,25,12,41,21.50
2012,05,25,12,42,21.60
2012,05,25,12,43,21.50
2012,05,25,12,44,21.50
2012,05,25,12,45,21.40
2012,05,25,12,46,21.40
2012,05,25,12,47,21.40
2012,05,25,12,48,21.50
2012,05,25,12,49,21.60
2012,05,25,12,50,21.60
2012,05,25,12,51,21.70
2012,05,25,12,52,21.70
2012,05,25,12,53,21.70
2012,05,25,12,54,21.50
2012,05,25,12,55,21.20
2012,05,25,12,56,21.10
2012,05,25,12,57,21.00
2012,05,25,12,58,20.90
2012,05,25,12,59,20.80
2012,05,25,13,00,20.70
2012,05,25,13,01,20.70
2012,05,25,13,02,20.60
2012,05,25,13,03,20.60
2012,05,25,13,04,20.70
2012,05,25,13,05,20.80
2012,05,25,13,06,20.90
2012,05,25,13,07,21.00
2012,05,25,13,08,20.90
2012,05,25,13,09,20.70
2012,05,25,13,10,20.60
2012,05,25,13,11,20.60
2012,05,25,13,12,20.60
2012,05,25,13,13,20.70
2012,05,25,13,14,20.90
2012,05,25,13,15,21.00
2012,05,25,13,16,21.00
2012,05,25,13,17,20.90
2012,05,25,13,18,20.70
2012,05,25,13,19,20.50
2012,05,25,13,20,20.50
2012,05,25,13,21,20.50
2012,05,25,13,22,20.40
2012,05,25,13,23,20.50
2012,05,25,13,24,20.60
2012,05,25,13,25,20.50
2012,05,25,13,26,20.40
2012,05,25,13,27,20.40
2012,05,25,13,28,20.40
2012,05,25,13,29,20.60
2012,05,25,13,30,20.70
2012,05,25,13,31,20.70
2012,05,25,13,32,20.60
2012,05,25,13,33,20.50
2012,05,25,13,34,20.40
2012,05,25,13,35,20.50
2012,05,25,13,36,20.60
2012,05,25,13,37,20.70
2012,05,25,13,38,20.50
2012,05,25,13,39,20.40
2012,05,25,13,40,20.30
2012,05,25,13,41,20.30
2012,05,25,13,42,20.20
2012,05,25,13,43,20.20
2012,05,25,13,44,20.10
2012,05,25,13,45,20.10
2012,05,25,13,46,20.10
2012,05,25,13,47,20.20
2012,05,25,13,48,20.30
2012,05,25,13,49,20.40
2012,05,25,13,50,20.30
2012,05,25,13,51,20.30
2012,05,25,13,52,20.40
2012,05,25,13,53,20.50
2012,05,25,13,54,20.70
2012,05,25,13,55,20.80
2012,05,25,13,56,20.90
2012,05,25,13,57,21.00
2012,05,25,13,58,21.10
2012,05,25,13,59,21.10
2012,05,25,14,00,20.90
2012,05,25,14,01,21.00
2012,05,25,14,02,21.10
2012,05,25,14,03,21.10
2012,05,25,14,04,21.20
2012,05,25,14,05,21.30
2012,05,25,14,06,21.40
2012,05,25,14,07,21.50
2012,05,25,14,08,21.50
2012,05,25,14,09,21.40
2012,05,25,14,10,21.50
2012,05,25,14,11,21.50
2012,05,25,14,12,21.50
2012,05,25,14,13,21.60
2012,05,25,14,14,21.60
2012,05,25,14,15,21.60
2012,05,25,14,16,21.60
2012,05,25,14,17,21.70
2012,05,25,14,18,21.80
2012,05,25,14,19,21.90
2012,05,25,14,20,22.00
2012,05,25,14,21,22.20
2012,05,25,14,22,22.20
2012,05,25,14,23,22.20
2012,05,25,14,24,22.20
2012,05,25,14,25,22.20
2012,05,25,14,26,22.20
2012,05,25,14,27,22.20
2012,05,25,14,28,22.20
2012,05,25,14,29,22.40
2012,05,25,14,30,22.50
2012,05,25,14,31,22.40
2012,05,25,14,32,22.40
2012,05,25,14,33,22.60
2012,05,25,14,34,22.70
2012,05,25,14,35,22.90
2012,05,25,14,36,23.10
2012,05,25,14,37,23.20
2012,05,25,14,38,23.30
2012,05,25,14,39,23.50
2012,05,25,14,40,23.60
2012,05,25,14,41,23.70
2012,05,25,14,42,23.80
2012,05,25,14,43,23.90
2012,05,25,14,44,23.90
2012,05,25,14,45,23.90
2012,05,25,14,46,23.90
2012,05,25,14,47,23.80
2012,05,25,14,48,23.70
2012,05,25,14,49,23.60
2012,05,25,14,50,23.50
2012,05,25,14,51,23.50
2012,05,25,14,52,23.40
2012,05,25,14,53,23.30
2012,05,25,14,54,23.30
2012,05,25,14,55,23.30
2012,05,25,14,56,23.20
2012,05,25,14,57,22.90
2012,05,25,14,58,22.80
2012,05,25,14,59,22.80
2012,05,25,15,00,22.80
2012,05,25,15,01,22.80
2012,05,25,15,02,22.90
2012,05,25,15,03,23.00
2012,05,25,15,04,23.00
2012,05,25,15,05,23.10
2012,05,25,15,06,23.10
2012,05,25,15,07,23.10
2012,05,25,15,08,23.00
2012,05,25,15,09,23.00
2012,05,25,15,10,22.90
2012,05,25,15,11,23.00
2012,05,25,15,12,23.10
2012,05,25,15,13,23.10
2012,05,25,15,14,23.10
2012,05,25,15,15,23.10
2012,05,25,15,16,23.00
2012,05,25,15,17,23.00
2012,05,25,15,18,23.00
2012,05,25,15,19,23.00
2012,05,25,15,20,23.00
2012,05,25,15,21,23.10
2012,05,25,15,22,23.20
2012,05,25,15,23,23.30
2012,05,25,15,24,23.40
2012,05,25,15,25,23.40
2012,05,25,15,26,23.40
2012,05,25,15,27,23.40
2012,05,25,15,28,23.40
2012,05,25,15,29,23.50
2012,05,25,15,30,23.50
2012,05,25,15,31,23.60
2012,05,25,15,32,23.70
2012,05,25,15,33,23.80
2012,05,25,15,34,23.80
2012,05,25,15,35,23.70
2012,05,25,15,36,23.60
2012,05,25,15,37,23.60
2012,05,25,15,38,23.60
2012,05,25,15,39,23.50
2012,05,25,15,40,23.40
2012,05,25,15,41,23.40
2012,05,25,15,42,23.40
2012,05,25,15,43,23.50
2012,05,25,15,44,23.50
2012,05,25,15,45,23.60
2012,05,25,15,46,23.60
2012,05,25,15,47,23.70
2012,05,25,15,48,23.70
2012,05,25,15,49,23.60
2012,05,25,15,50,23.60
2012,05,25,15,51,23.70
2012,05,25,15,52,23.80
2012,05,25,15,53,23.80
2012,05,25,15,54,23.80
2012,05,25,15,55,23.60
2012,05,25,15,56,23.50
2012,05,25,15,57,23.40
2012,05,25,15,58,23.40
2012,05,25,15,59,23.40
2012,05,25,16,00,23.40
2012,05,25,16,01,23.40
2012,05,25,16,02,23.40
2012,05,25,16,03,23.40
2012,05,25,16,04,23.40
2012,05,25,16,05,23.30
2012,05,25,16,06,23.30
2012,05,25,16,07,23.30
2012,05,25,16,08,23.30
2012,05,25,16,09,23.30
2012,05,25,16,10,23.40
2012,05,25,16,11,23.40
2012,05,25,16,12,23.40
2012,05,25,16,13,23.30
2012,05,25,16,14,23.30
2012,05,25,16,15,23.40
2012,05,25,16,16,23.50
2012,05,25,16,17,23.60
2012,05,25,16,18,23.70
2012,05,25,16,19,23.80
2012,05,25,16,20,23.80
2012,05,25,16,21,23.80
2012,05,25,16,22,23.80
2012,05,25,16,23,23.70
2012,05,25,16,24,23.40
2012,05,25,16,25,23.20
2012,05,25,16,26,23.10
2012,05,25,16,27,23.10
2012,05,25,16,28,23.10
2012,05,25,16,29,23.10
2012,05,25,16,30,23.20
2012,05,25,16,31,23.20
2012,05,25,16,32,23.40
2012,05,25,16,33,23.50
2012,05,25,16,34,23.60
2012,05,25,16,35,23.70
2012,05,25,16,36,23.70
2012,05,25,16,37,23.80
2012,05,25,16,38,23.80
2012,05,25,16,39,23.80
2012,05,25,16,40,23.70
2012,05,25,16,41,23.60
2012,05,25,16,42,23.60
2012,05,25,16,43,23.60
2012,05,25,16,44,23.40
2012,05,25,16,45,23.30
2012,05,25,16,46,23.30
2012,05,25,16,47,23.30
2012,05,25,16,48,23.30
2012,05,25,16,49,23.30
2012,05,25,16,50,23.30
2012,05,25,16,51,23.30
2012,05,25,16,52,23.40
2012,05,25,16,53,23.40
2012,05,25,16,54,23.40
2012,05,25,16,55,23.40
2012,05,25,16,56,23.40
2012,05,25,16,57,23.40
2012,05,25,16,58,23.50
2012,05,25,16,59,23.60
2012,05,25,17,00,23.60
2012,05,25,17,01,23.60
2012,05,25,17,02,23.50
2012,05,25,17,03,23.40
2012,05,25,17,04,23.20
2012,05,25,17,05,23.10
2012,05,25,17,06,22.90
2012,05,25,17,07,22.70
2012,05,25,17,08,22.50
2012,05,25,17,09,22.40
2012,05,25,17,10,22.40
2012,05,25,17,11,22.50
2012,05,25,17,12,22.60
2012,05,25,17,13,22.70
2012,05,25,17,14,22.80
2012,05,25,17,15,22.90
2012,05,25,17,16,23.00
2012,05,25,17,17,23.10
2012,05,25,17,18,23.20
2012,05,25,17,19,23.30
2012,05,25,17,20,23.40
2012,05,25,17,21,23.50
2012,05,25,17,22,23.60
2012,05,25,17,23,23.70
2012,05,25,17,24,23.80
2012,05,25,17,25,23.90
2012,05,25,17,26,23.90
2012,05,25,17,27,23.90
2012,05,25,17,28,23.90
2012,05,25,17,29,23.90
2012,05,25,17,30,23.90
2012,05,25,17,31,23.80
2012,05,25,17,32,23.80
2012,05,25,17,33,23.80
2012,05,25,17,34,23.70
2012,05,25,17,35,23.70
2012,05,25,17,36,23.70
2012,05,25,17,37,23.70
2012,05,25,17,38,23.70
2012,05,25,17,39,23.70
2012,05,25,17,40,23.70
2012,05,25,17,41,23.70
2012,05,25,17,42,23.70
2012,05,25,17,43,23.80
2012,05,25,17,44,23.60